[[{"header":{"parameterUnit":"m.s-1","parameterCategory":1,"la1":30.2991,"la2":30.254,"lo1":-89.0895,"lo2":-89.0444,"dy":0.0017,"dx":0.0017,"nx":28,"ny":28,"refTime":"2024-12-20T03:00:00:Z","depth":0,"parameterNumber":2,"parameterNumberName":"U-component_of_WINDS"},"data":[0,0,0,0,0,0,0,0,0,0,0,0,0,0,0,0,0,0,0,0,0,0,0,0,0,0,0,0,0,0,0,0,0,0,0,0,0,0,0,0,0,0,0,0,0,0,0,0,0,0,0,0,0,0,0,0,0,0,2.9517,2.9517,0,2.954,2.954,2.954,2.9495,2.9494,2.9493,2.9491,2.9514,2.9516,2.9518,0,0,0,0,0,0,0,0,0,0,0,0,0,2.9435,2.9437,2.9517,2.9517,2.9517,2.954,2.954,2.954,2.9496,2.9494,2.9492,2.949,2.9514,2.9516,2.9518,0,0,0,0,0,0,0,0,0,0,0,0,0,2.9466,2.9437,2.9517,2.9498,2.9496,2.954,2.954,2.9541,2.9496,2.9494,2.9492,2.949,2.9513,2.9516,2.9519,2.9581,0,0,2.9528,2.9529,0,0,0,0,0,0,0,0,2.9464,2.9469,2.95,2.9499,2.9498,2.9513,2.952,2.9554,2.9497,2.9496,2.9491,2.9489,2.9515,2.9518,2.9527,2.9583,2.9584,2.9528,2.953,2.9531,2.9532,0,0,0,0,0,0,0,2.9462,2.9467,2.9526,2.9501,2.9499,2.9489,2.949,2.9526,2.9518,2.9496,2.9493,2.9496,2.9514,2.9524,2.9527,2.9584,2.9528,2.9531,2.9532,2.9534,2.9695,2.9697,0,0,0,0,0,0,2.9462,2.9466,2.9525,2.9527,2.9475,2.9492,2.9494,2.951,2.9517,2.9516,2.9498,2.9494,2.952,2.9524,2.9528,2.9604,2.9531,2.9534,2.9536,2.9692,2.9695,2.9698,0,0,0,0,0,0,2.9461,2.9468,2.9524,2.9495,2.9502,2.9496,2.9514,2.9512,2.9522,2.9519,2.9517,2.951,2.9519,2.9524,2.9569,2.9604,2.9535,2.9538,2.9689,2.9693,2.9697,2.9755,0,0,0,0,0,0,2.9458,2.9468,2.9491,2.9496,2.9504,2.9565,2.9516,2.9514,2.9527,2.9522,2.953,2.9529,2.9517,2.9565,2.9572,2.9607,2.954,2.9686,2.9691,2.9695,2.975,2.976,2.9769,0,0,0,0,0,2.9456,2.9506,2.9492,2.95,2.9533,2.9567,2.9571,2.9557,2.953,2.9554,2.9553,2.9529,2.9599,2.957,2.9578,2.9614,2.9684,2.969,2.9695,2.9745,2.9758,2.9769,0,0,0,0,0,0,2.9503,2.9506,2.9491,2.9544,2.9556,2.9559,2.9588,2.957,2.9589,2.9584,2.9566,2.9568,2.9617,2.962,2.9587,2.9676,2.9637,2.9644,2.9673,2.9685,2.9694,2.9692,2.9543,0,0,0,0,0,2.952,2.9548,2.9548,2.9595,2.9602,2.9595,2.9609,2.9597,2.9608,2.9613,2.9615,2.9626,2.9651,2.9668,2.9691,2.975,2.9752,2.9779,2.9788,2.9796,2.9803,2.9837,2.9849,2.9716,2.9716,2.9716,0,0,2.9555,2.956,2.9578,2.9605,2.9613,2.9642,2.9599,2.9631,2.9653,2.9618,2.9661,2.9663,2.9675,2.9728,2.9752,2.9732,2.984,2.9803,2.981,2.9812,2.9844,2.9856,2.9868,2.972,2.9719,2.9719,0,0,2.9634,2.964,2.968,2.969,2.9702,2.9697,2.9707,2.9714,2.9714,2.9758,2.9732,2.9758,2.9801,2.9811,2.9822,2.9908,2.9888,2.9916,2.9966,2.9999,3.001,3.0019,3.0051,3.0062,2.9923,2.9923,2.9923,0,2.9675,2.9719,2.9704,2.9739,2.9752,2.9723,2.9765,2.9774,2.9793,2.9803,2.9781,2.9836,2.9842,2.9898,2.9919,2.9929,2.994,2.9915,3.0009,3.0018,3.0027,3.0057,3.0069,2.9926,2.9926,2.9926,2.9925,0,2.977,2.9801,2.9832,2.9853,2.987,2.9908,2.99,2.9919,2.9907,2.9904,2.995,2.9957,2.9981,2.9993,2.9981,3.0049,3.0037,3.0012,2.9972,3.0043,3.0072,3.0083,2.9931,2.993,2.9929,2.9928,0,0,2.9878,2.9892,2.9904,2.9914,2.9926,2.995,2.9988,3.0012,3.003,3.0045,3.0077,3.0115,3.0093,3.0106,3.0095,3.0124,3.0194,3.0096,3.0096,3.0115,3.0271,3.0289,3.0303,3.018,3.0182,3.0184,3.027,0,2.9957,3.0022,3.0011,3.0075,3.0104,3.0078,3.0111,3.0123,3.0123,3.0148,3.0147,3.0175,3.0144,3.0151,3.0179,3.0179,3.0225,3.0173,3.021,3.0212,3.0209,3.0317,3.0337,3.0417,3.0281,3.0283,3.0284,0,3.0058,3.0078,3.0145,3.0155,3.0167,3.0197,3.022,3.0244,3.0258,3.0256,3.0271,3.0256,3.0294,3.0254,3.0308,3.0273,3.0288,3.0291,3.0294,3.0297,3.0252,3.0324,3.0442,3.0455,3.0301,3.0299,3.0298,0,3.0131,3.0175,3.0221,3.0231,3.0244,3.0266,3.0272,3.0284,3.03,3.032,3.0331,3.0355,3.0369,3.0388,3.038,3.0352,3.0437,3.0395,3.0437,3.0437,3.0455,3.0455,3.0579,3.0464,3.0464,3.0464,3.0464,0,3.0221,3.0264,3.0255,3.0283,3.0331,3.0318,3.0365,3.0369,3.038,3.0409,3.0388,3.0416,3.0403,3.043,3.0424,3.0471,3.0477,3.0477,3.0475,3.0479,3.0479,3.0489,3.0483,3.0467,3.0466,3.0466,3.0465,0,3.0311,3.0307,3.0356,3.0365,3.0369,3.0403,3.0411,3.0439,3.0437,3.0475,3.0483,3.0481,3.0513,3.0507,3.0541,3.0537,3.0596,3.0587,3.0592,3.059,3.0632,3.0628,3.0767,3.0785,3.0658,3.0659,3.066,0,3.0369,3.0401,3.0415,3.0433,3.0442,3.0471,3.0489,3.0478,3.0497,3.0517,3.0542,3.0572,3.0595,3.0647,3.0649,3.0676,3.0667,3.0714,3.0671,3.0675,3.0669,3.0668,3.0672,3.0722,3.0724,3.0725,3.0726,0,3.0473,3.047,3.0495,3.0521,3.0543,3.0562,3.058,3.0596,3.0588,3.061,3.0643,3.0661,3.0697,3.0727,3.0753,3.076,3.0742,3.074,3.0751,3.0756,3.0758,3.0759,3.0616,3.0736,3.0735,3.0735,3.0734,3.0734,3.0549,3.0577,3.0592,3.0622,3.0634,3.0652,3.0679,3.0682,3.0709,3.0738,3.073,3.0768,3.0783,3.0815,3.0825,3.0855,3.0837,3.0853,3.0857,3.0862,3.0867,3.0753,3.0859,3.0859,3.0859,3.0858,3.0858,0,3.0653,3.0661,3.0689,3.0715,3.0739,3.0721,3.074,3.0762,3.0795,3.0811,3.0835,3.0873,3.0903,3.0909,3.0937,3.096,3.0953,3.0968,3.0967,3.0969,3.0881,3.0869,3.0974,3.0974,3.0974,3.0974,3.0974,3.0974,3.0709,3.0757,3.0756,3.081,3.0818,3.0855,3.0868,3.0885,3.0897,3.0942,3.0967,3.097,3.0982,3.1012,3.104,3.104,3.1052,3.1071,3.1069,3.0986,3.0975,3.0964,3.0952,3.1074,3.1074,3.1155,3.1156,3.1156]},{"header":{"parameterUnit":"m.s-1","parameterCategory":1,"la1":30.2991,"la2":30.254,"lo1":-89.0895,"lo2":-89.0444,"dy":0.0017,"dx":0.0017,"nx":28,"ny":28,"refTime":"2024-12-20T03:00:00:Z","depth":0,"parameterNumber":3,"parameterNumberName":"V-component_of_WINDS"},"data":[0,0,0,0,0,0,0,0,0,0,0,0,0,0,0,0,0,0,0,0,0,0,0,0,0,0,0,0,0,0,0,0,0,0,0,0,0,0,0,0,0,0,0,0,0,0,0,0,0,0,0,0,0,0,0,0,0,0,-2.7288,-2.7289,0,-2.7338,-2.7338,-2.7339,-2.7344,-2.7344,-2.7343,-2.7343,-2.7392,-2.7394,-2.7395,0,0,0,0,0,0,0,0,0,0,0,0,0,-2.7199,-2.72,-2.7288,-2.7289,-2.729,-2.7338,-2.7338,-2.7339,-2.7344,-2.7344,-2.7343,-2.7343,-2.7391,-2.7394,-2.7396,0,0,0,0,0,0,0,0,0,0,0,0,0,-2.7242,-2.7201,-2.7288,-2.7298,-2.7299,-2.7338,-2.7338,-2.7339,-2.7345,-2.7344,-2.7343,-2.7342,-2.7391,-2.7393,-2.7396,-2.7427,0,0,-2.7404,-2.7405,0,0,0,0,0,0,0,0,-2.7239,-2.7245,-2.7296,-2.7297,-2.7299,-2.7334,-2.7325,-2.7369,-2.7345,-2.7327,-2.7343,-2.7342,-2.7373,-2.7377,-2.7388,-2.7429,-2.7432,-2.7404,-2.7406,-2.7407,-2.7408,0,0,0,0,0,0,0,-2.7236,-2.7243,-2.7308,-2.7297,-2.7299,-2.73,-2.7305,-2.7333,-2.7354,-2.7329,-2.7329,-2.7335,-2.7374,-2.7386,-2.7389,-2.7432,-2.7404,-2.7407,-2.7408,-2.7409,-2.7504,-2.7505,0,0,0,0,0,0,-2.7231,-2.724,-2.7306,-2.7309,-2.7267,-2.7302,-2.7308,-2.7324,-2.7354,-2.7357,-2.7336,-2.7335,-2.7381,-2.7386,-2.7391,-2.7431,-2.7407,-2.741,-2.7411,-2.7503,-2.7504,-2.7505,0,0,0,0,0,0,-2.723,-2.7237,-2.7304,-2.7275,-2.7284,-2.7305,-2.7322,-2.7325,-2.7337,-2.7359,-2.7362,-2.7344,-2.7381,-2.7387,-2.7419,-2.7433,-2.7411,-2.7413,-2.7502,-2.7504,-2.7505,-2.7511,0,0,0,0,0,0,-2.7227,-2.7237,-2.7249,-2.7275,-2.7285,-2.7331,-2.7323,-2.7326,-2.7341,-2.7341,-2.7367,-2.7371,-2.7381,-2.7415,-2.7421,-2.7436,-2.7415,-2.7501,-2.7503,-2.7504,-2.751,-2.7513,-2.7515,0,0,0,0,0,-2.7224,-2.7247,-2.7249,-2.7257,-2.7301,-2.7332,-2.7338,-2.7349,-2.7342,-2.7355,-2.737,-2.737,-2.743,-2.7418,-2.7425,-2.7441,-2.75,-2.7502,-2.7504,-2.7509,-2.7512,-2.7515,0,0,0,0,0,0,-2.7221,-2.7251,-2.7253,-2.7286,-2.7307,-2.7333,-2.7349,-2.7352,-2.7374,-2.7373,-2.7385,-2.7391,-2.7423,-2.7435,-2.7421,-2.7474,-2.7465,-2.7468,-2.7465,-2.7469,-2.7471,-2.7468,-2.7417,0,0,0,0,0,-2.7224,-2.7247,-2.7272,-2.7299,-2.7309,-2.7327,-2.7341,-2.7349,-2.737,-2.7378,-2.7395,-2.7415,-2.7439,-2.7455,-2.7477,-2.7511,-2.7518,-2.7526,-2.7529,-2.7531,-2.7534,-2.7555,-2.756,-2.7512,-2.7512,-2.7512,0,0,-2.7231,-2.7251,-2.7264,-2.7299,-2.7316,-2.734,-2.7334,-2.7359,-2.7378,-2.7382,-2.7413,-2.7426,-2.745,-2.7484,-2.7499,-2.7495,-2.7549,-2.7534,-2.7535,-2.7537,-2.7558,-2.7562,-2.7566,-2.7514,-2.7513,-2.7513,0,0,-2.7257,-2.7273,-2.7298,-2.7315,-2.7341,-2.7353,-2.7359,-2.7385,-2.7395,-2.7426,-2.7431,-2.7452,-2.7492,-2.751,-2.7524,-2.7558,-2.756,-2.7565,-2.7579,-2.7599,-2.7603,-2.7607,-2.762,-2.7625,-2.7568,-2.7568,-2.7568,0,-2.7262,-2.7299,-2.7311,-2.7337,-2.7352,-2.7358,-2.7385,-2.74,-2.7432,-2.7443,-2.7438,-2.749,-2.7506,-2.7545,-2.7553,-2.7564,-2.7572,-2.7562,-2.7602,-2.7605,-2.7609,-2.7622,-2.7627,-2.7569,-2.7569,-2.7569,-2.7568,0,-2.7305,-2.733,-2.7348,-2.7379,-2.7397,-2.7423,-2.7439,-2.7456,-2.7462,-2.7474,-2.7508,-2.7528,-2.7556,-2.7565,-2.757,-2.7605,-2.7602,-2.7599,-2.759,-2.7614,-2.7626,-2.7631,-2.7569,-2.7569,-2.7569,-2.7569,0,0,-2.7329,-2.7369,-2.7375,-2.7391,-2.742,-2.744,-2.7466,-2.7495,-2.7509,-2.7531,-2.7555,-2.7589,-2.7587,-2.7603,-2.7611,-2.7629,-2.7657,-2.7624,-2.7625,-2.7631,-2.7699,-2.7702,-2.7707,-2.7658,-2.7659,-2.766,-2.7697,0,-2.7359,-2.7408,-2.742,-2.7461,-2.7486,-2.7492,-2.7516,-2.7536,-2.7549,-2.7572,-2.7586,-2.7612,-2.7606,-2.7616,-2.7634,-2.765,-2.7671,-2.7647,-2.7681,-2.7682,-2.7676,-2.7714,-2.7717,-2.7751,-2.7702,-2.7703,-2.7703,0,-2.7401,-2.7425,-2.7469,-2.7497,-2.7508,-2.7529,-2.7557,-2.7578,-2.7602,-2.7611,-2.763,-2.7636,-2.7665,-2.7653,-2.7694,-2.7677,-2.7692,-2.7702,-2.7703,-2.7708,-2.7695,-2.7721,-2.7762,-2.7767,-2.7711,-2.7711,-2.771,0,-2.7417,-2.746,-2.7492,-2.7505,-2.7538,-2.7553,-2.7567,-2.7591,-2.7608,-2.7632,-2.7644,-2.767,-2.7686,-2.7707,-2.772,-2.7711,-2.776,-2.775,-2.7769,-2.7769,-2.778,-2.7779,-2.7825,-2.7787,-2.7787,-2.7787,-2.7787,0,-2.745,-2.7476,-2.75,-2.752,-2.7551,-2.7565,-2.7595,-2.761,-2.7631,-2.7655,-2.7661,-2.7683,-2.77,-2.7724,-2.7735,-2.7768,-2.7774,-2.7782,-2.7785,-2.7782,-2.7782,-2.7793,-2.7791,-2.7788,-2.7788,-2.7787,-2.7787,0,-2.7473,-2.7489,-2.7526,-2.7555,-2.7563,-2.7584,-2.7609,-2.7629,-2.7643,-2.7673,-2.768,-2.7702,-2.7731,-2.7747,-2.7783,-2.779,-2.7828,-2.7828,-2.782,-2.7821,-2.784,-2.7839,-2.7897,-2.7906,-2.786,-2.786,-2.786,0,-2.7493,-2.7514,-2.7546,-2.7563,-2.7578,-2.7604,-2.7622,-2.7637,-2.7655,-2.7686,-2.7703,-2.7732,-2.7757,-2.7803,-2.7822,-2.785,-2.7853,-2.7871,-2.7857,-2.7855,-2.7855,-2.7854,-2.7857,-2.7874,-2.7874,-2.7875,-2.7875,0,-2.7529,-2.7536,-2.7562,-2.7591,-2.7613,-2.7636,-2.7659,-2.7672,-2.7691,-2.7711,-2.7742,-2.7761,-2.7799,-2.7829,-2.7859,-2.7874,-2.7878,-2.7879,-2.7885,-2.7884,-2.7879,-2.7883,-2.7828,-2.7878,-2.7878,-2.7877,-2.7877,-2.7877,-2.7552,-2.7572,-2.7599,-2.7627,-2.7647,-2.7669,-2.769,-2.7707,-2.7732,-2.7765,-2.7772,-2.7805,-2.783,-2.7871,-2.7887,-2.7913,-2.791,-2.7918,-2.7921,-2.7923,-2.7925,-2.7874,-2.7918,-2.7918,-2.7918,-2.7918,-2.7918,0,-2.759,-2.7607,-2.7634,-2.7667,-2.769,-2.7692,-2.7718,-2.7737,-2.7766,-2.779,-2.7814,-2.785,-2.788,-2.7902,-2.7932,-2.7949,-2.7952,-2.7956,-2.7956,-2.796,-2.7925,-2.7918,-2.7954,-2.7954,-2.7954,-2.7954,-2.7954,-2.7954,-2.7612,-2.7647,-2.7658,-2.7702,-2.772,-2.7752,-2.7768,-2.7788,-2.7807,-2.7847,-2.7872,-2.7887,-2.791,-2.7942,-2.797,-2.7976,-2.7987,-2.7992,-2.7998,-2.7966,-2.7962,-2.7958,-2.7951,-2.7994,-2.7994,-2.8031,-2.8031,-2.8031]}]]